Regional Weather Roundup
Issued by NWS Kansas City/Pleasant Hill, MO

Home | Current Version | Previous Version | Text Only | Print | Product List | Glossary On
Versions: 1 2 3 4 5 6 7 8 9 10 11 12 13 14 15 16 17 18 19 20 21 22 23 24 25 26 27 28 29 30 31 32 33 34 35 36 37 38 39 40 41 42 43 44 45 46 47 48 49 50
000
ASUS43 KEAX 181710
RWREAX

WEATHER ROUNDUP FOR EASTERN KANSAS AND NORTHWEST MISSOURI
NATIONAL WEATHER SERVICE KANSAS CITY/PLEASANT HILL MO
1100 AM CST WED JAN 18 2017

KSZ040-057-103>105-MOZ028-029-037-043-181800-
...KANSAS CITY METROPOLITAN AREA...

CITY           SKY/WX    TMP DP  RH WIND       PRES   REMARKS
K.C. INTL      FOG       34  32  92 S12       30.15R VSB 1/2 WCI  25
K.C. DOWNTOWN  CLOUDY    36  35  96 S6        30.16F WCI  31
LEES SUMMIT    FOG       37  37 100 S10       30.16F VSB 3/4 WCI  30
OLATHE - IXD   FOG       34  34 100 S10       30.16S VSB 1/4 WCI  26
OLATHE - OJC   FOG       34  34 100 S10       30.16S VSB 1/4 WCI  26
LAWRENCE       SUNNY     39  37  92 SE9       30.16R WCI  33

$$

MOZ001>008-011>017-020>025-030>033-038>040-044>046-053-054-181800-
...NORTHERN AND CENTRAL MISSOURI...

CITY           SKY/WX    TMP DP  RH WIND       PRES   REMARKS
ST. JOSEPH     MOSUNNY   35  35 100 S8        30.14S WCI  29
MOSBY          FOG       32  32 100 SE3       30.17F VSB 3/4
WARRENSBURG    CLOUDY    37  36  93 SE7       30.17F WCI  32
WHITEMAN AFB   CLOUDY    37  37 100 S7        30.16F WCI  32
CLINTON        CLOUDY    37  37 100 S7        30.20S FOG     WCI  32
SEDALIA        CLOUDY    38  36  92 SW9       30.20F WCI  31
WARSAW         NOT AVBL
CHILLICOTHE      N/A     35  35 100 S8        30.17F WCI  29
KIRKSVILLE     CLOUDY    37  36  96 SW8       30.16F WCI  31

$$

MOZ041-047>049-056>058-063>065-088>090-097-181800-
...EASTERN AND SOUTHERN MISSOURI...

CITY           SKY/WX    TMP DP  RH WIND       PRES   REMARKS
ST. LOUIS INTL MOSUNNY   45  32  60 CALM      30.22F
SPIRIT OF STL  SUNNY     42  34  73 CALM      30.22F
COLUMBIA       CLOUDY    39  34  82 VRB6      30.20F WCI  35
JEFFERSON CITY MOSUNNY   40  33  76 VRB6      30.21F
ROLLA          SUNNY     41  35  79 SE7       30.17F
OSAGE BEACH    PTSUNNY   40  35  83 SE5       30.19F
SPRINGFIELD    CLOUDY    43  36  76 SE5       30.16F
BRANSON        FOG       37  37 100 E5        30.20R VSB 1/16WCI  34
JOPLIN         CLOUDY    43  39  86 E3        30.16F
WEST PLAINS    CLOUDY    38  36  92 E6        30.21S WCI  33

$$

IAZ060-094-KSZ022-034>040-054-083-096-NEZ052-066-093-181800-
...KANSAS...SOUTHEAST NEBRASKA AND IOWA...

CITY           SKY/WX    TMP DP  RH WIND       PRES   REMARKS
TOPEKA         SUNNY     44  35  70 S9        30.14S
MANHATTAN      CLOUDY    40  34  79 CALM      30.11R
EMPORIA        CLOUDY    39  37  92 S9        30.12F WCI  33
CHANUTE        CLOUDY    38  37  97 CALM      30.16S
WICHITA        PTSUNNY   45  38  76 S9        30.12F
OMAHA          MOSUNNY   37  32  82 S12       30.03F WCI  29
LINCOLN        SUNNY     41  34  76 S10       30.04S WCI  35
FALLS CITY     SUNNY     39  34  82 S10       30.08F WCI  32
LAMONI         FOG       32  31  96 S10       30.10F VSB 1/4 WCI  24
DES MOINES     MOSUNNY   36  33  89 S10       30.08F WCI  28

$$




USA.gov is the U.S. government's official web portal to all federal, state and local government web resources and services.